Tracking 29489 objects as of 10-Sep-2024
HD Live streaming from Space Station
objects crossing your sky now

SL-14 R/B

Track SL-14 R/B now!
10-day predictions


NORAD ID: 14552
Int'l Code: 1983-122B
Perigee: 608.3 km
Apogee: 634.0 km
Inclination: 82.5 °
Period: 97.0 minutes
Semi major axis: 6992 km
RCS: 4.6828 m2 (large)
Launch date: December 15, 1983
Source: Commonwealth of Independent States (former USSR) (CIS)
Launch site: PLESETSK MISSILE AND SPACE COMPLEX (PKMTR)

Note: This is a ROCKET BODY
Your satellite tracking list
Your tracking list is empty




NASA's NSSDC Master Catalog

Two Line Element Set (TLE):
1 14552U 83122B   24253.58680429  .00001796  00000-0  20794-3 0  9999
2 14552  82.5228 122.6406 0018417  85.9321 274.3999 14.84868641179769
Source of the keplerian elements: AFSPC